Погода в Банско

Болгария     41°50′14″N   23°29′17″E
темп.,
°C
ветер,
м/с
пор.,
м/с
влажн.,
%
обл.,
%
осадки,
мм/ч
давл.,
гПа
погр.,
м
1 июля, пт
пт100:00+14ю11814 0.8 101812
03:00+13с01823 0.8 101811
06:00+12с11820 0.0 101812
09:00+19ссв11580 0.0 1018517
12:00+23ссв02346 0.0 10172210
15:00+25ссз123361 0.6 10162652
18:00+18св126271 0.3 101789
21:00+16всв116814 0.3 101911
2 июля, сб
сб200:00+14ссв11660 0.0 102013
03:00+14ссв11640 0.0 102013
06:00+14с116415 0.0 101912
09:00+20ссв23487 0.0 10191064
12:00+23св244196 0.0 10192413
15:00+22всв354275 0.0 10192060
18:00+16с247955 0.4 1021166
21:00+15ссв128350 1.1 102119
3 июля, вс
вс300:00+14св22810 0.1 102219
03:00+13св12870 0.1 102221
06:00+13св11800 0.0 102217
09:00+19всв12540 0.0 1021614
12:00+23св13357 0.0 10202128
15:00+23с123981 0.0 10191968
18:00+22ссв234439 0.0 10191557
21:00+16св127066 0.0 102020
4 июля, пн
пн400:00+16ссв016411 0.0 102013
03:00+13с11750 0.0 102114
06:00+13с11745 0.0 102014
09:00+19св23544 0.0 1019815
12:00+23всв24406 0.0 10182020
15:00+24св33338 0.0 10182330
18:00+22всв224331 0.0 10181657
21:00+17св126252 0.0 101931
5 июля, вт
вт500:00+14св11628 0.0 102012
03:00+14ссв11570 0.0 102013
06:00+13ссв11520 0.0 102015
09:00+20св24370 0.0 1019850
12:00+23св34310 0.0 10191900
15:00+24св44300 0.0 10182133
18:00+22св333632 0.0 10171864
21:00+16всв116014 0.0 101813